Flag for Germany Weather past 2 weeks in Hofheim am Taunus, Hesse, Germany

Now
81 °F

Scattered clouds.


Feels Like: 81 °F
Forecast: 58 / 83 °F
Wind: 14 mph from Southwest

Location: Wiesbaden Airport

Current Time: Aug 4, 2015 at 12:13:27 PM

Latest Report: Aug 4, 2015 at 11:02 AM


Visibility: N/A

Pressure: 29.91 "Hg

Humidity: 45%

Dew point: 57 °F

Location of Hofheim am TaunusLocation

Historic Weather in Hofheim am Taunus — Graph

°F

Hofheim am Taunus temperature yesterday

Maximum temperature yesterday: 91 °F (at 5:58 PM)
Minimum temperature yesterday: 60 °F (at 4:58 AM)
Average temperature yesterday: 77 °F

Past Weeks' High & Low Weather Summary

 TemperatureHumidityPressure
High91 °F (Aug 3, 5:58 PM)100% (Jul 20, 11:58 AM)30.13 "Hg (Jul 20, 11:58 AM)
Low49 °F (Jul 26, 5:58 AM)25% (Aug 2, 6:58 PM)29.62 "Hg (Jul 24, 10:58 PM)
Average70 °F58%29.91 "Hg
* Reported Jul 20 11:58 AM — Aug 4 11:02 AM, Hofheim am Taunus, Weather by CustomWeather, © 2015

Note: Actual official high and low records may vary slightly from our data, if they occured in-between our weather recording intervals... More about our weather records

Advertising

Hofheim am Taunus weather history for previous 24 hours

 ConditionsComfort  
Time TempWeatherWind HumidityBarometerVisibility
11:02 AM
Tue, Aug 4
81 °FScattered clouds.14 mph45%29.91 "HgN/A
10:58 AM81 °FPartly sunny.9 mph45%29.90 "HgN/A
9:58 AM79 °FSunny.6 mph45%29.87 "HgN/A
8:58 AM77 °FPassing clouds.3 mph47%29.87 "HgN/A
7:58 AM72 °FScattered clouds.2 mph55%29.87 "HgN/A
6:58 AM64 °FClear.3 mph64%29.88 "HgN/A
5:58 AM68 °FClear.6 mph56%29.87 "HgN/A
4:58 AM63 °FClear.2 mph68%29.88 "HgN/A
3:58 AM63 °FClear.6 mph73%29.90 "HgN/A
2:58 AM64 °FClear.2 mph68%29.91 "HgN/A
1:58 AM68 °FClear.2 mph60%29.91 "HgN/A
12:58 AM69 °FClear.2 mph55%29.92 "HgN/A
11:58 PM
Mon, Aug 3
70 °FClear.2 mph57%29.93 "HgN/A
10:58 PM72 °FClear.2 mph54%29.93 "HgN/A
9:58 PM81 °FSunny.3 mph38%29.93 "HgN/A
8:58 PM84 °FSunny.3 mph33%29.93 "HgN/A
7:58 PM88 °FSunny.6 mph29%29.92 "HgN/A
6:58 PM90 °FSunny.6 mph27%29.94 "HgN/A
5:58 PM91 °FSunny.8 mph27%29.95 "HgN/A
4:58 PM90 °FSunny.10 mph26%29.96 "HgN/A
3:58 PM90 °FSunny.10 mph26%29.98 "HgN/A
2:58 PM89 °FSunny.8 mph28%29.98 "HgN/A
1:58 PM88 °FSunny.15 mph31%29.99 "HgN/A
12:58 PM86 °FSunny.9 mph33%30.02 "HgN/A
Weather by CustomWeather, © 2015

See weather overviewHow to use our weather pages